This is the latest recevied weather packets stored in our database for station/object WE8L. If no packets are shown the sender has not sent any weather packets the latest 10 day(s).
| Time | Temp. | Humidity | Pressure | Rain* | Wind** | Luminosity | Snow |
|---|---|---|---|---|---|---|---|
| 1777301495 | 18.89° C | 71% | 1018.6 hPa | 0 mm | - | 119 W/m² | - |
| 1777301191 | 18.89° C | 72% | 1018.6 hPa | 0 mm | - | 166 W/m² | - |
| 1777300888 | 18.89° C | 71% | 1018.5 hPa | 0 mm | - | 296 W/m² | - |
| 1777300586 | 18.33° C | 72% | 1018.5 hPa | 0 mm | - | 232 W/m² | - |
| 1777300284 | 18.33° C | 71% | 1018.5 hPa | 0 mm | - | 195 W/m² | - |
| 1777299980 | 18.33° C | 72% | 1018.5 hPa | 0 mm | - | 107 W/m² | - |
| 1777299676 | 18.33° C | 72% | 1018.7 hPa | 0 mm | - | 113 W/m² | - |
| 1777299375 | 17.22° C | 74% | 1018.5 hPa | 0 mm | - | 192 W/m² | - |
| 1777299072 | 17.22° C | 74% | 1018.6 hPa | 0 mm | - | 97 W/m² | - |
| 1777298769 | 16.67° C | 74% | 1019 hPa | 0 mm | - | 152 W/m² | - |
| 1777298465 | 16.67° C | 76% | 1018.8 hPa | 0 mm | - | 140 W/m² | - |
| 1777298161 | 16.67° C | 76% | 1019.1 hPa | 0 mm | - | 116 W/m² | - |
| 1777297856 | 16.67° C | 76% | 1019 hPa | 0 mm | - | 119 W/m² | - |
| 1777297555 | 16.11° C | 76% | 1018.9 hPa | 0 mm | - | 199 W/m² | - |
| 1777297251 | 15.56° C | 77% | 1018.9 hPa | 0 mm | - | 223 W/m² | - |
| 1777296948 | 15.56° C | 78% | 1018.8 hPa | 0 mm | - | 155 W/m² | - |
| 1777296645 | 15° C | 78% | 1018.9 hPa | 0 mm | - | 146 W/m² | - |
| 1777296321 | 15° C | 79% | 1019 hPa | 0 mm | - | 141 W/m² | - |
| 1777296016 | 15° C | 81% | 1019.1 hPa | 0 mm | - | 121 W/m² | - |
| 1777295714 | 14.44° C | 81% | 1019.3 hPa | 0 mm | - | 73 W/m² | - |
| 1777295412 | 14.44° C | 81% | 1019.2 hPa | 0 mm | - | 64 W/m² | - |
| 1777295109 | 13.89° C | 81% | 1019.1 hPa | 0 mm | - | 55 W/m² | - |
| 1777294806 | 13.89° C | 82% | 1019.1 hPa | 0 mm | - | 54 W/m² | - |
| 1777294501 | 13.89° C | 83% | 1019.1 hPa | 0 mm | - | 50 W/m² | - |
| 1777294198 | 13.89° C | 83% | 1019 hPa | 0 mm | - | 49 W/m² | - |
* Rain latest hour (hover to see other rain measurements)
** Current wind speed in m/s (hover to see current wind gust speed)